Washington, NC

3:21 PM EDT on July 22, 2017 (GMT -0400)
Warren

Weather History for KOCW - December, 2012

Change the Weather History Date:

Monday, December 31, 2012

  Actual Average (KPGV) Record (KPGV)
Temperature  
Mean Temperature 39 °F -  
Max Temperature 52 °F 55 °F 75 °F (1969)
Min Temperature 26 °F 34 °F 12 °F (1983)
Degree Days  
Heating Degree Days 26    
Moisture  
Dew Point 24 °F    
Average Humidity 61    
Maximum Humidity 83    
Minimum Humidity 25    
Precipitation  
Precipitation 0.00 in - - ()
Sea Level Pressure  
Sea Level Pressure 30.30 in    
Wind  
Wind Speed 2 mph (SW)    
Max Wind Speed 12 mph    
Max Gust Speed -    
Visibility 10 miles    
Events      
Averages and records for this station are not official NWS values.
T = Trace of Precipitation, MM = Missing Value Source: NWS Daily Summary

Daily Weather History Graph

Daily Weather History Graph

Search for Another Location

Airport or City:

Trip Planner

Search our weather history database for the weather conditions in past years. The results will help you decide how hot, cold, wet, or windy it might be!

Date:

Astronomy

Dec. 31, 2012 Rise Set
Actual Time 7:17 AM EST 5:05 PM EST
Civil Twilight 6:49 AM EST 5:33 PM EST
Nautical Twilight 6:17 AM EST 6:05 PM EST
Astronomical Twilight 5:46 AM EST 6:36 PM EST
Moon 8:26 PM EST (12/31) 9:04 AM EST (12/31)
Length of Visible Light 10h 44m
Length of Day
9h 47m
Waning Gibbous, 90% of the Moon is Illuminated
Dec 31
Waning Gibbous
Jan 4
Last Quarter
Jan 11
New
Jan 18
First Quarter
Jan 26
Full

Hourly Weather History & Observations

Time (EST) Temp. Windchill Dew Point Humidity Pressure Visibility Wind Dir Wind Speed Gust Speed Precip Events Conditions
12:15 AM 32.5 °F - 25.2 °F 74% 30.38 in 10.0 mi Calm Calm - N/A   Clear
12:35 AM 32.5 °F - 25.9 °F 76% 30.38 in 10.0 mi Calm Calm - N/A   Clear
12:55 AM 32.5 °F - 24.8 °F 73% 30.37 in 10.0 mi Calm Calm - N/A   Clear
1:15 AM 30.2 °F - 24.1 °F 78% 30.38 in 10.0 mi Calm Calm - N/A   Clear
1:35 AM 32.5 °F - 25.5 °F 75% 30.38 in 10.0 mi Calm Calm - N/A   Clear
1:55 AM 32.4 °F - 26.2 °F 78% 30.39 in 10.0 mi Calm Calm - N/A   Clear
2:15 AM 30.2 °F - 24.1 °F 78% 30.37 in 10.0 mi Calm Calm - N/A   Clear
2:35 AM 29.5 °F - 23.5 °F 79% 30.37 in 10.0 mi Calm Calm - N/A   Clear
2:55 AM 28.4 °F - 22.8 °F 80% 30.38 in 10.0 mi Calm Calm - N/A   Clear
3:15 AM 29.8 °F - 24.1 °F 79% 30.36 in 10.0 mi Calm Calm - N/A   Clear
3:35 AM 28.2 °F - 22.6 °F 80% 30.37 in 10.0 mi Calm Calm - N/A   Clear
3:55 AM 27.5 °F - 22.8 °F 83% 30.37 in 10.0 mi Calm Calm - N/A   Clear
4:15 AM 27.5 °F - 22.8 °F 83% 30.37 in 10.0 mi Calm Calm - N/A   Clear
4:35 AM 27.5 °F - 22.8 °F 83% 30.37 in 10.0 mi Calm Calm - N/A   Clear
4:55 AM 27.5 °F - 22.8 °F 83% 30.36 in 10.0 mi Calm Calm - N/A   Clear
5:15 AM 27.5 °F - 22.8 °F 83% 30.37 in 10.0 mi Calm Calm - N/A   Clear
5:35 AM 27.1 °F - 22.3 °F 82% 30.37 in 10.0 mi Calm Calm - N/A   Clear
5:55 AM 26.2 °F - 21.4 °F 82% 30.36 in 10.0 mi Calm Calm - N/A   Clear
6:15 AM 27.0 °F - 22.1 °F 82% 30.37 in 10.0 mi Calm Calm - N/A   Clear
6:35 AM 27.5 °F - 22.8 °F 83% 30.38 in 10.0 mi Calm Calm - N/A   Clear
6:55 AM 27.1 °F - 22.3 °F 82% 30.37 in 10.0 mi Calm Calm - N/A   Clear
7:15 AM 27.5 °F - 22.6 °F 82% 30.38 in 10.0 mi Calm Calm - N/A   Clear
7:35 AM 26.4 °F - 21.6 °F 82% 30.37 in 10.0 mi Calm Calm - N/A   Clear
7:55 AM 27.5 °F - 22.8 °F 83% 30.37 in 10.0 mi Calm Calm - N/A   Clear
8:15 AM 30.2 °F - 25.2 °F 82% 30.37 in 10.0 mi Calm Calm - N/A   Clear
8:35 AM 32.5 °F - 27.9 °F 83% 30.38 in 10.0 mi Calm Calm - N/A   Clear
8:55 AM 32.5 °F - 27.3 °F 81% 30.38 in 10.0 mi Calm Calm - N/A   Clear
9:15 AM 32.9 °F 29.8 °F 26.6 °F 78% 30.39 in 10.0 mi SW 3.5 mph - N/A   Clear
9:35 AM 35.1 °F 32.2 °F 27.9 °F 75% 30.39 in 10.0 mi SW 3.5 mph - N/A   Clear
9:55 AM 37.6 °F 35.1 °F 28.4 °F 69% 30.39 in 10.0 mi SW 3.5 mph - N/A   Clear
10:15 AM 37.6 °F 33.1 °F 25.3 °F 61% 30.38 in 10.0 mi SW 5.8 mph - N/A   Clear
10:35 AM 40.1 °F 36.1 °F 25.0 °F 55% 30.38 in 10.0 mi SW 5.8 mph - N/A   Clear
10:55 AM 40.1 °F 35.3 °F 23.2 °F 51% 30.38 in 10.0 mi SW 6.9 mph - N/A   Clear
11:15 AM 41.5 °F 38.6 °F 19.6 °F 41% 30.35 in 10.0 mi SSW 4.6 mph - N/A   Clear
11:35 AM 42.8 °F 38.6 °F 19.8 °F 40% 30.35 in 10.0 mi SW 6.9 mph - N/A   Clear
11:55 AM 42.8 °F 38.0 °F 19.2 °F 39% 30.34 in 10.0 mi SW 8.1 mph - N/A   Clear
12:15 PM 43.9 °F 38.8 °F 18.7 °F 37% 30.32 in 10.0 mi SW 9.2 mph - N/A   Clear
12:35 PM 45.1 °F 42.0 °F 20.5 °F 38% 30.30 in 10.0 mi WSW 5.8 mph - N/A   Clear
12:55 PM 45.7 °F 41.5 °F 21.0 °F 38% 30.29 in 10.0 mi SW 8.1 mph - N/A   Clear
1:15 PM 50.2 °F - 22.3 °F 34% 30.27 in 10.0 mi SSW 9.2 mph - N/A   Clear
1:35 PM 50.9 °F - 20.7 °F 30% 30.24 in 10.0 mi SW 9.2 mph - N/A   Clear
1:55 PM 52.7 °F - 22.6 °F 31% 30.24 in 10.0 mi SW 11.5 mph - N/A   Clear
2:15 PM 52.7 °F - 17.4 °F 25% 30.25 in 10.0 mi SSW 10.4 mph - N/A   Clear
4:55 PM 51.1 °F - 19.8 °F 29% 30.20 in 10.0 mi SSW 5.8 mph - N/A   Unknown
5:15 PM 50.2 °F - 19.9 °F 30% 30.20 in 10.0 mi SSW 5.8 mph - N/A   Clear
5:35 PM 48.4 °F - 19.6 °F 32% 30.19 in 10.0 mi SSW 4.6 mph - N/A   Clear
5:55 PM 49.3 °F - 21.2 °F 33% 30.19 in 10.0 mi SSW 5.8 mph - N/A   Clear
6:15 PM 50.2 °F - 21.6 °F 33% 30.20 in 10.0 mi SW 5.8 mph - N/A   Clear
6:35 PM 46.6 °F - 21.9 °F 38% 30.20 in 10.0 mi WSW 4.6 mph - N/A   Clear
6:55 PM 45.5 °F 43.2 °F 23.0 °F 41% 30.21 in 10.0 mi WSW 4.6 mph - N/A   Clear
7:15 PM 45.9 °F - 24.6 °F 43% 30.21 in 10.0 mi Calm Calm - N/A   Scattered Clouds
7:35 PM 45.7 °F 43.4 °F 25.7 °F 46% 30.19 in 10.0 mi South 4.6 mph - N/A   Mostly Cloudy
7:55 PM 46.8 °F - 23.7 °F 40% 30.19 in 10.0 mi Calm Calm - N/A   Overcast
8:15 PM 46.9 °F - 24.4 °F 41% 30.19 in 10.0 mi Calm Calm - N/A   Overcast
8:35 PM 46.6 °F - 25.3 °F 43% 30.16 in 10.0 mi SSE 4.6 mph - N/A   Overcast
8:55 PM 46.4 °F 44.3 °F 27.1 °F 47% 30.17 in 10.0 mi SSW 4.6 mph - N/A   Overcast
9:35 PM 46.9 °F - 31.1 °F 54% 30.15 in 10.0 mi SSW 4.6 mph - N/A   Overcast
10:15 PM 47.3 °F - 33.8 °F 59% 30.15 in 10.0 mi SSW 8.1 mph - N/A   Mostly Cloudy
10:35 PM 47.7 °F - 35.1 °F 62% 30.15 in 10.0 mi SW 5.8 mph - N/A   Overcast
10:55 PM 46.6 °F - 35.2 °F 65% 30.16 in 10.0 mi SW 5.8 mph - N/A   Mostly Cloudy
11:15 PM 47.5 °F - 36.3 °F 65% 30.15 in 10.0 mi SW 4.6 mph - N/A   Overcast
11:35 PM 46.8 °F - 36.3 °F 67% 30.14 in 10.0 mi SW 4.6 mph - N/A   Overcast
11:55 PM 47.5 °F - 37.0 °F 67% 30.13 in 10.0 mi SW 4.6 mph - N/A   Scattered Clouds